GFSFLT2_sfc_rhum_162.txt.gz
RH
70 69 65 64 72 73 75 71 72 64 64 65 67 70 70 67 69 69 73 76 83 91 92 93 93 95 96 97 95 94 96 97
68 69 70 68 66 70 71 69 67 63 65 66 68 69 68 69 71 70 70 70 71 86 92 94 94 95 96 98 97 95 97 97
71 71 69 70 64 63 69 66 62 65 70 65 73 75 78 73 68 67 69 69 70 70 75 79 95 95 96 97 98 99 97 96
72 74 75 73 55 72 74 68 74 74 76 78 81 79 74 67 71 68 70 68 69 71 73 77 78 92 93 97 98 96 96 90
68 69 73 76 78 78 80 82 81 81 76 80 80 77 83 80 79 75 75 72 73 76 79 80 79 83 84 95 93 94 91 87
67 73 73 77 79 80 82 79 78 79 79 78 83 84 85 85 79 79 78 78 76 77 79 81 82 80 80 76 82 92 89 85
73 74 74 73 73 77 78 78 76 78 78 77 76 78 82 82 81 78 78 75 74 74 76 78 79 79 80 81 81 79 82 91
74 73 71 71 75 76 78 79 78 76 74 73 75 78 78 80 81 78 77 75 73 77 78 79 79 80 80 82 82 82 85 83
70 67 69 72 71 72 75 74 71 71 71 72 69 72 76 80 79 78 78 77 80 78 74 76 79 79 87 82 83 84 84 84
68 60 71 70 71 74 71 70 72 69 72 70 70 72 72 77 79 81 80 77 75 79 79 78 74 76 84 83 84 83 84 84
70 70 70 69 70 72 74 73 68 68 68 68 71 71 73 80 80 80 79 78 80 80 81 82 79 77 75 71 80 83 82 74
67 66 69 70 73 72 72 69 70 67 67 68 68 71 73 79 80 80 77 78 76 78 80 78 79 83 70 67 74 79 82 87
69 70 73 75 77 80 78 77 75 72 68 67 70 70 74 73 77 76 75 79 72 72 75 82 82 78 86 79 75 67 75 79
64 69 72 74 75 79 80 80 77 75 72 69 69 71 74 69 79 77 79 80 79 78 78 86 84 81 92 88 96 83 89 75
65 67 70 72 73 73 75 77 76 76 75 74 69 70 70 77 73 79 80 79 84 81 81 85 93 82 81 95 93 95 84 90
67 67 69 71 76 79 84 85 88 85 86 81 77 72 72 74 77 76 79 81 84 85 78 86 89 92 85 78 85 91 89 89
74 74 75 77 79 84 89 91 90 89 89 87 84 77 75 75 77 75 80 83 85 88 89 88 88 92 92 91 90 89 87 92
75 78 79 80 82 86 88 90 87 89 90 90 87 82 81 79 79 78 78 82 86 86 87 90 88 88 90 90 92 95 94 95
71 77 82 82 83 84 82 86 88 92 93 94 92 88 85 85 84 85 83 85 82 82 84 91 92 92 90 92 88 88 89 90
80 78 79 79 80 84 83 81 81 82 85 90 94 92 88 85 85 84 83 84 84 80 85 84 88 93 90 90 90 88 88 91

GFSFLT2_sfc_rhum_165.txt.gz
RH
70 70 66 70 70 70 71 67 65 67 67 66 67 69 69 69 71 70 71 72 73 73 75 84 94 94 95 96 98 97 97 98
69 71 73 73 76 68 67 64 66 68 64 66 66 71 69 69 72 70 70 71 71 74 76 77 82 95 96 96 98 98 98 97
74 74 75 74 68 67 73 67 67 71 72 68 76 79 83 79 71 70 69 74 75 76 77 77 76 78 90 97 97 96 99 98
76 76 78 76 60 79 79 70 77 77 78 81 83 84 76 72 74 72 74 73 71 72 73 74 74 75 72 75 95 98 97 95
76 75 79 79 80 83 85 84 82 80 80 83 86 81 85 82 81 80 80 72 71 70 74 72 78 82 79 80 73 75 91 91
76 75 75 79 81 84 84 81 81 80 83 79 83 83 83 83 81 81 79 79 77 77 79 83 84 81 81 77 80 86 74 78
77 74 77 77 79 83 83 82 79 84 79 80 79 80 83 81 82 79 80 78 80 82 82 81 82 81 82 83 82 86 84 86
73 75 76 72 78 78 83 81 82 80 75 74 77 79 78 80 81 80 79 77 77 80 80 79 81 83 82 80 81 81 82 84
72 73 72 74 77 78 80 78 77 80 73 76 74 74 77 84 82 81 79 78 79 79 81 81 80 75 81 78 82 80 80 78
72 62 74 75 76 79 73 76 78 76 76 77 74 74 74 82 80 82 80 78 77 81 81 85 85 82 82 79 82 82 81 80
73 74 76 76 76 80 80 75 77 75 76 75 74 76 76 78 83 81 78 77 79 78 77 76 80 84 82 76 74 78 78 68
72 74 76 77 79 80 77 78 77 78 73 74 73 77 76 78 80 80 78 80 77 74 74 74 76 79 76 78 82 77 77 88
75 77 79 80 82 86 86 87 83 81 72 73 74 76 76 78 78 80 82 79 75 75 78 81 81 77 85 79 79 74 80 79
77 77 77 78 84 86 85 87 85 82 80 76 75 75 77 73 79 82 75 78 78 80 81 86 82 80 92 89 91 85 73 68
78 78 79 79 78 78 80 80 78 79 80 80 79 75 76 82 76 79 80 77 81 82 82 85 93 82 79 94 94 89 88 87
78 73 74 78 82 84 85 87 91 91 92 87 85 78 77 80 79 79 75 79 82 78 76 86 89 92 83 76 84 91 96 89
77 76 78 83 86 87 91 90 92 89 91 91 89 86 81 80 84 81 85 85 81 81 85 87 85 90 93 91 88 86 88 96
82 80 82 83 84 85 89 92 87 93 95 96 94 87 85 84 83 86 86 84 84 82 86 84 87 86 88 88 92 95 93 96
81 79 83 83 83 84 81 84 86 89 94 95 95 90 86 87 88 89 89 88 84 83 87 83 85 90 90 92 89 89 88 90
81 80 83 84 84 79 80 83 88 87 88 93 95 94 87 85 83 85 85 86 86 85 86 84 79 87 89 90 91 90 90 92

GFSFLT2_sfc_rhum_168.txt.gz
RH
74 77 71 73 71 69 68 68 68 67 67 67 70 70 72 72 72 71 72 74 77 79 79 79 78 87 95 96 97 97 98 96
76 79 76 77 83 68 67 68 70 69 68 70 73 75 72 72 73 72 74 74 72 74 75 76 76 75 76 81 91 97 97 97
76 76 76 75 74 68 74 70 71 74 74 71 80 84 81 79 72 72 71 72 69 69 69 69 70 71 72 74 78 91 92 89
79 79 79 78 64 82 81 73 82 81 81 83 85 87 76 73 73 70 71 71 70 70 71 71 72 72 72 72 73 70 77 90
77 78 81 81 84 84 85 83 88 86 84 84 87 82 82 80 80 78 80 73 73 73 76 75 82 84 79 80 74 76 77 80
76 77 79 83 85 84 86 82 86 85 84 81 84 83 85 84 83 82 80 79 79 80 83 84 84 81 83 81 83 86 81 78
79 78 80 80 79 87 85 89 86 81 79 80 82 80 83 85 84 82 78 77 78 80 80 80 81 82 81 84 77 84 78 74
78 77 78 77 82 88 91 86 84 80 82 80 79 81 86 88 84 81 79 80 78 80 82 83 82 80 78 77 79 79 79 79
75 76 77 81 86 82 84 80 78 81 80 79 79 77 81 84 86 84 81 78 77 79 80 80 80 79 84 77 77 78 78 77
74 66 78 84 88 84 78 81 80 80 81 80 79 78 78 81 84 83 81 79 79 77 72 72 71 72 76 81 81 78 77 77
78 78 80 83 85 82 81 81 80 80 79 78 78 76 78 83 82 82 81 81 80 75 76 75 77 73 71 70 75 78 79 68
78 79 80 82 83 83 81 80 81 80 80 79 81 79 80 80 81 83 82 80 76 75 78 76 77 77 71 76 74 75 78 84
79 79 82 82 88 89 87 91 86 82 80 79 82 78 82 80 82 82 81 78 77 76 78 80 79 75 81 78 80 81 83 82
81 82 83 84 85 88 87 87 87 85 83 82 81 77 82 78 82 83 75 76 75 75 79 84 79 77 89 87 85 81 72 66
83 85 86 85 84 86 87 84 81 84 84 85 84 78 80 84 85 82 83 81 80 76 80 80 88 77 76 95 94 92 88 84
84 78 80 80 83 82 83 83 87 89 90 88 87 81 81 84 85 86 88 83 81 78 74 80 81 85 78 72 81 94 97 92
82 78 77 78 80 82 82 85 88 86 90 89 88 83 81 83 87 88 87 87 83 86 88 77 81 83 86 88 82 82 86 97
76 77 82 80 79 80 80 80 81 85 88 90 91 88 84 82 83 89 87 88 90 88 86 83 86 83 84 85 89 94 90 95
79 82 82 80 72 70 76 81 84 87 92 93 90 82 82 84 82 86 87 86 86 85 85 86 87 87 84 88 87 89 92 90
79 78 82 75 72 81 83 81 85 87 87 91 91 90 84 83 77 81 83 83 84 82 83 80 81 88 85 86 85 87 90 93

GFSFLT2_sfc_rhum_171.txt.gz
RH
70 68 74 72 70 71 71 71 70 71 71 72 72 72 72 72 73 73 72 71 71 72 72 73 73 75 76 80 82 88 79 65
68 69 67 71 67 70 70 72 71 71 71 72 73 70 69 71 67 70 69 71 69 70 69 70 69 68 68 71 74 85 73 70
76 66 65 62 59 64 68 71 71 68 67 72 62 58 58 55 66 70 69 70 68 69 69 69 69 58 63 68 68 55 61 81
58 59 59 58 47 60 62 60 61 62 64 65 59 62 61 56 62 69 68 69 66 67 67 64 53 43 40 50 39 46 47 60
54 62 63 56 55 52 53 56 59 61 66 65 65 57 59 54 53 52 54 60 48 50 50 46 56 53 49 51 49 48 41 42
54 58 64 66 54 55 56 53 55 56 60 66 60 56 60 60 55 54 54 54 59 55 53 60 61 60 57 56 56 52 44 45
57 57 61 61 63 60 59 57 57 60 56 62 59 56 62 58 58 55 55 55 55 56 56 57 58 58 59 60 55 54 52 46
59 58 62 60 64 65 60 59 58 56 57 62 66 59 61 59 59 56 54 55 56 58 59 58 58 59 58 60 61 57 53 53
60 64 64 64 64 60 58 56 56 56 56 65 64 62 62 63 58 58 58 58 62 58 58 55 54 53 56 56 57 59 55 55
56 55 63 64 64 58 53 56 56 56 56 58 65 65 65 62 58 61 64 60 58 58 59 59 58 57 59 55 54 54 56 58
58 62 63 64 64 59 60 63 56 56 56 56 66 67 66 61 60 63 65 59 61 61 61 62 61 62 60 55 56 54 56 52
58 59 63 64 58 57 55 57 57 56 56 58 64 64 69 62 60 66 62 60 60 62 66 61 62 66 57 58 56 56 57 57
57 63 65 55 53 52 54 58 58 59 58 64 63 66 70 67 61 63 63 63 66 64 65 68 60 62 65 61 57 59 62 54
58 59 62 57 54 54 54 55 59 60 59 62 63 65 70 64 69 67 69 67 67 65 70 70 62 64 78 82 70 56 56 50
58 59 60 60 59 54 54 54 52 53 58 58 60 62 66 70 69 68 68 66 66 65 71 73 79 63 71 84 91 87 72 56
59 60 59 59 59 54 52 43 46 57 57 55 53 59 60 66 69 67 67 69 66 64 65 68 71 78 65 62 68 88 97 88
62 62 61 62 60 56 50 54 53 52 52 53 52 52 55 58 65 64 64 64 66 65 64 63 66 76 79 75 67 67 93 96
60 60 60 61 53 53 51 52 52 49 49 46 45 46 48 54 57 59 60 62 64 62 63 66 67 71 74 77 77 83 82 90
62 60 59 51 43 44 46 48 48 50 50 47 45 44 47 50 53 54 54 58 61 61 62 64 69 74 76 79 77 75 80 83
60 58 57 43 46 47 48 46 46 48 48 46 48 48 48 49 50 51 55 56 56 55 56 61 67 74 73 75 74 77 76 83